Time,TemperatureF,DewpointF,PressureIn,WindDirection,WindDirectionDegrees,WindSpeedMPH,WindSpeedGustMPH,Humidity,HourlyPrecipIn,Conditions,Clouds,dailyrainin,SoftwareType,DateUTC
2013-08-28 00:01:00,77.5,74.7,30.01,NW,321,0.4,1.2,91,0.00,RA,,0.00,WeatherDisplay:10.37,2013-08-28 04:01:00,
2013-08-28 00:02:00,77.5,74.7,30.01,NW,321,0.2,2.3,91,0.00,RA,,0.00,WeatherDisplay:10.37,2013-08-28 04:02:00,
2013-08-28 00:07:00,77.4,74.6,30.01,NW,321,0.0,0.0,91,0.00,RA,,0.00,WeatherDisplay:10.37,2013-08-28 04:07:00,
2013-08-28 00:12:00,77.5,74.7,30.01,NW,321,0.0,0.0,91,0.00,CLR,,0.00,WeatherDisplay:10.37,2013-08-28 04:12:00,
2013-08-28 00:15:00,77.5,74.7,30.01,NW,321,0.0,0.0,91,0.00,CLR,,0.00,WeatherDisplay:10.37,2013-08-28 04:15:00,
2013-08-28 00:20:00,77.4,74.6,30.01,NW,321,0.0,0.0,91,0.00,CLR,,0.00,WeatherDisplay:10.37,2013-08-28 04:20:00,
2013-08-28 00:25:00,77.4,74.9,30.00,NW,321,0.0,0.0,92,0.00,CLR,,0.00,WeatherDisplay:10.37,2013-08-28 04:25:00,
2013-08-28 00:30:00,77.2,74.4,30.00,NW,321,0.0,1.2,91,0.00,CLR,,0.00,WeatherDisplay:10.37,2013-08-28 04:30:00,
2013-08-28 00:35:00,77.1,74.3,30.00,NW,321,0.0,0.0,91,0.00,CLR,,0.00,WeatherDisplay:10.37,2013-08-28 04:35:00,
2013-08-28 00:40:00,77.0,74.5,30.00,NW,321,0.0,0.0,92,0.00,CLR,,0.00,WeatherDisplay:10.37,2013-08-28 04:40:00,
2013-08-28 00:45:00,76.8,74.0,30.00,NW,321,0.0,0.0,91,0.00,CLR,,0.00,WeatherDisplay:10.37,2013-08-28 04:45:00,
2013-08-28 00:50:00,76.5,73.7,30.00,NW,321,0.0,0.0,91,0.00,CLR,,0.00,WeatherDisplay:10.37,2013-08-28 04:50:00,
2013-08-28 00:55:00,76.3,73.5,30.00,NW,321,0.0,0.0,91,0.00,CLR,,0.00,WeatherDisplay:10.37,2013-08-28 04:55:00,
2013-08-28 01:00:00,76.2,73.7,29.99,NW,321,0.0,0.0,92,0.00,CLR,,0.00,WeatherDisplay:10.37,2013-08-28 05:00:00,
2013-08-28 01:05:00,76.1,73.6,29.99,NW,321,0.0,0.0,92,0.00,CLR,,0.00,WeatherDisplay:10.37,2013-08-28 05:05:00,
2013-08-28 01:10:00,76.0,73.5,29.99,NW,321,0.0,0.0,92,0.00,CLR,,0.00,WeatherDisplay:10.37,2013-08-28 05:10:00,
2013-08-28 01:15:00,75.9,73.7,29.99,NW,321,0.0,0.0,93,0.00,CLR,,0.00,WeatherDisplay:10.37,2013-08-28 05:15:00,
2013-08-28 01:20:00,75.8,73.6,29.99,NW,321,0.0,0.0,93,0.00,CLR,,0.00,WeatherDisplay:10.37,2013-08-28 05:20:00,
2013-08-28 01:25:00,75.6,73.4,29.99,NW,321,0.0,0.0,93,0.00,CLR,,0.00,WeatherDisplay:10.37,2013-08-28 05:25:00,
2013-08-28 01:30:00,75.5,73.3,29.99,NW,321,0.0,0.0,93,0.00,CLR,,0.00,WeatherDisplay:10.37,2013-08-28 05:30:00,
2013-08-28 01:35:00,75.3,73.1,29.98,NW,321,0.0,0.0,93,0.00,CLR,,0.00,WeatherDisplay:10.37,2013-08-28 05:35:00,
2013-08-28 01:40:00,75.3,73.1,29.98,NW,321,0.0,0.0,93,0.00,CLR,,0.00,WeatherDisplay:10.37,2013-08-28 05:40:00,
2013-08-28 01:45:00,75.3,73.5,29.98,NW,321,0.0,0.0,94,0.00,CLR,,0.00,WeatherDisplay:10.37,2013-08-28 05:45:00,
2013-08-28 01:50:00,75.3,73.5,29.98,NW,321,0.0,0.0,94,0.00,CLR,,0.00,WeatherDisplay:10.37,2013-08-28 05:50:00,
2013-08-28 01:55:00,75.5,73.7,29.97,NW,321,0.0,0.0,94,0.00,CLR,,0.00,WeatherDisplay:10.37,2013-08-28 05:55:00,
2013-08-28 02:00:00,75.4,73.6,29.97,NW,321,0.0,0.0,94,0.00,CLR,,0.00,WeatherDisplay:10.37,2013-08-28 06:00:00,
2013-08-28 02:05:00,75.5,73.7,29.97,NW,321,0.0,0.0,94,0.00,CLR,,0.00,WeatherDisplay:10.37,2013-08-28 06:05:00,
2013-08-28 02:10:00,75.4,73.6,29.97,NW,321,0.0,0.0,94,0.00,CLR,,0.00,WeatherDisplay:10.37,2013-08-28 06:10:00,
2013-08-28 02:15:00,75.3,73.5,29.97,NW,321,0.0,0.0,94,0.00,CLR,,0.00,WeatherDisplay:10.37,2013-08-28 06:15:00,
2013-08-28 02:20:00,75.3,73.5,29.97,NW,321,0.0,0.0,94,0.00,CLR,,0.00,WeatherDisplay:10.37,2013-08-28 06:20:00,
2013-08-28 02:25:00,75.3,73.8,29.96,NW,321,0.0,0.0,95,0.00,CLR,,0.00,WeatherDisplay:10.37,2013-08-28 06:25:00,
2013-08-28 02:30:00,75.2,73.7,29.96,NW,321,0.0,0.0,95,0.00,CLR,,0.00,WeatherDisplay:10.37,2013-08-28 06:30:00,
2013-08-28 02:35:00,75.1,73.6,29.96,NW,321,0.0,0.0,95,0.00,CLR,,0.00,WeatherDisplay:10.37,2013-08-28 06:35:00,
2013-08-28 02:40:00,75.0,73.5,29.96,NW,321,0.0,0.0,95,0.00,CLR,,0.00,WeatherDisplay:10.37,2013-08-28 06:40:00,
2013-08-28 02:45:00,74.8,73.3,29.96,NW,321,0.0,0.0,95,0.00,CLR,,0.00,WeatherDisplay:10.37,2013-08-28 06:45:00,
2013-08-28 02:50:00,74.8,73.3,29.95,NW,321,0.0,0.0,95,0.00,CLR,,0.00,WeatherDisplay:10.37,2013-08-28 06:50:00,
2013-08-28 02:55:00,74.7,73.2,29.95,NW,321,0.0,0.0,95,0.00,CLR,,0.00,WeatherDisplay:10.37,2013-08-28 06:55:00,
2013-08-28 03:00:00,74.5,73.0,29.95,NW,321,0.0,0.0,95,0.00,CLR,,0.00,WeatherDisplay:10.37,2013-08-28 07:00:00,
2013-08-28 03:05:00,74.4,72.9,29.95,NW,321,0.0,0.0,95,0.00,CLR,,0.00,WeatherDisplay:10.37,2013-08-28 07:05:00,
2013-08-28 03:10:00,74.4,72.9,29.95,NW,321,0.0,0.0,95,0.00,CLR,,0.00,WeatherDisplay:10.37,2013-08-28 07:10:00,
2013-08-28 03:15:00,74.3,72.8,29.95,NW,321,0.0,0.0,95,0.00,CLR,,0.00,WeatherDisplay:10.37,2013-08-28 07:15:00,
2013-08-28 03:20:00,74.4,73.2,29.94,NW,321,0.0,0.0,96,0.00,CLR,,0.00,WeatherDisplay:10.37,2013-08-28 07:20:00,
2013-08-28 03:25:00,74.8,73.6,29.94,NW,321,0.0,0.0,96,0.00,CLR,,0.00,WeatherDisplay:10.37,2013-08-28 07:25:00,
2013-08-28 03:30:00,74.7,73.5,29.95,NW,321,0.0,0.0,96,0.00,CLR,,0.00,WeatherDisplay:10.37,2013-08-28 07:30:00,
2013-08-28 03:35:00,74.6,73.4,29.94,NW,321,0.0,0.0,96,0.00,CLR,,0.00,WeatherDisplay:10.37,2013-08-28 07:35:00,
2013-08-28 03:40:00,74.5,73.3,29.95,NW,321,0.0,0.0,96,0.00,CLR,,0.00,WeatherDisplay:10.37,2013-08-28 07:40:00,
2013-08-28 03:45:00,74.2,72.7,29.95,NW,321,0.0,0.0,95,0.00,CLR,,0.00,WeatherDisplay:10.37,2013-08-28 07:45:00,
2013-08-28 03:50:00,74.1,72.6,29.95,NW,321,0.0,0.0,95,0.00,CLR,,0.00,WeatherDisplay:10.37,2013-08-28 07:50:00,
2013-08-28 03:55:00,74.0,72.5,29.95,NW,321,0.0,0.0,95,0.00,CLR,,0.00,WeatherDisplay:10.37,2013-08-28 07:55:00,
2013-08-28 04:00:00,73.9,72.4,29.95,NW,321,0.0,0.0,95,0.00,CLR,,0.00,WeatherDisplay:10.37,2013-08-28 08:00:00,
2013-08-28 04:05:00,73.9,72.4,29.95,NW,321,0.0,0.0,95,0.00,CLR,,0.00,WeatherDisplay:10.37,2013-08-28 08:05:00,
2013-08-28 04:10:00,74.0,72.5,29.94,NW,321,0.1,1.2,95,0.00,CLR,,0.00,WeatherDisplay:10.37,2013-08-28 08:10:00,
2013-08-28 04:15:00,74.2,73.0,29.94,NW,321,0.1,1.2,96,0.00,CLR,,0.00,WeatherDisplay:10.37,2013-08-28 08:15:00,
2013-08-28 04:20:00,74.5,73.3,29.94,NW,321,0.2,1.2,96,0.00,CLR,,0.00,WeatherDisplay:10.37,2013-08-28 08:20:00,
2013-08-28 04:25:00,74.5,73.0,29.94,NW,321,0.0,0.0,95,0.00,CLR,,0.00,WeatherDisplay:10.37,2013-08-28 08:25:00,
2013-08-28 04:30:00,74.4,72.9,29.94,NW,321,0.0,0.0,95,0.00,CLR,,0.00,WeatherDisplay:10.37,2013-08-28 08:30:00,
2013-08-28 04:35:00,74.5,73.0,29.94,NW,321,0.0,0.0,95,0.00,CLR,,0.00,WeatherDisplay:10.37,2013-08-28 08:35:00,
2013-08-28 04:40:00,74.6,73.1,29.95,NW,321,0.0,0.0,95,0.00,CLR,,0.00,WeatherDisplay:10.37,2013-08-28 08:40:00,
2013-08-28 04:45:00,74.5,73.0,29.95,NW,321,0.0,0.0,95,0.00,CLR,,0.00,WeatherDisplay:10.37,2013-08-28 08:45:00,
2013-08-28 04:50:00,74.6,73.1,29.95,NW,321,0.0,0.0,95,0.00,CLR,,0.00,WeatherDisplay:10.37,2013-08-28 08:50:00,
2013-08-28 04:56:00,74.5,72.7,29.95,NW,321,0.0,0.0,94,0.00,CLR,,0.00,WeatherDisplay:10.37,2013-08-28 08:56:00,
2013-08-28 05:01:00,74.4,72.6,29.95,NW,321,0.0,0.0,94,0.00,CLR,,0.00,WeatherDisplay:10.37,2013-08-28 09:01:00,
2013-08-28 05:06:00,74.3,72.8,29.95,NW,321,0.0,0.0,95,0.00,CLR,,0.00,WeatherDisplay:10.37,2013-08-28 09:06:00,
2013-08-28 05:11:00,74.5,73.0,29.95,NW,321,0.0,0.0,95,0.00,CLR,,0.00,WeatherDisplay:10.37,2013-08-28 09:11:00,
2013-08-28 05:16:00,74.6,73.1,29.95,NW,321,0.7,1.2,95,0.00,CLR,,0.00,WeatherDisplay:10.37,2013-08-28 09:16:00,
2013-08-28 05:21:00,74.6,73.1,29.95,NW,321,1.0,1.2,95,0.00,CLR,,0.00,WeatherDisplay:10.37,2013-08-28 09:21:00,
2013-08-28 05:26:00,74.6,73.1,29.95,NW,321,0.0,1.2,95,0.00,CLR,,0.00,WeatherDisplay:10.37,2013-08-28 09:26:00,
2013-08-28 05:31:00,74.6,73.1,29.96,NW,321,0.0,0.0,95,0.00,CLR,,0.00,WeatherDisplay:10.37,2013-08-28 09:31:00,
2013-08-28 05:34:00,74.7,73.2,29.96,NW,321,0.0,0.0,95,0.00,CLR,,0.00,WeatherDisplay:10.37,2013-08-28 09:34:00,
2013-08-28 05:39:00,74.7,73.2,29.96,NW,321,0.0,0.0,95,0.00,CLR,,0.00,WeatherDisplay:10.37,2013-08-28 09:39:00,
2013-08-28 05:44:00,74.7,73.2,29.96,NW,321,0.0,0.0,95,0.00,CLR,,0.00,WeatherDisplay:10.37,2013-08-28 09:44:00,
2013-08-28 05:49:00,74.7,73.2,29.96,NW,321,0.0,0.0,95,0.00,CLR,,0.00,WeatherDisplay:10.37,2013-08-28 09:49:00,
2013-08-28 05:54:00,74.7,73.2,29.97,NW,321,0.0,1.2,95,0.00,CLR,,0.00,WeatherDisplay:10.37,2013-08-28 09:54:00,
2013-08-28 05:59:00,74.9,73.4,29.97,NW,321,0.0,0.0,95,0.00,CLR,,0.00,WeatherDisplay:10.37,2013-08-28 09:59:00,
2013-08-28 06:04:00,75.0,73.5,29.97,NW,321,0.0,0.0,95,0.00,CLR,,0.00,WeatherDisplay:10.37,2013-08-28 10:04:00,
2013-08-28 06:09:00,75.1,73.6,29.97,NW,321,0.0,0.0,95,0.00,CLR,,0.00,WeatherDisplay:10.37,2013-08-28 10:09:00,
2013-08-28 06:14:00,75.6,74.4,29.96,NW,321,0.9,2.3,96,0.01,RA,,0.01,WeatherDisplay:10.37,2013-08-28 10:14:00,
2013-08-28 06:19:00,75.8,74.6,29.96,NW,321,0.0,0.0,96,0.01,RA,,0.01,WeatherDisplay:10.37,2013-08-28 10:19:00,
2013-08-28 06:24:00,75.8,74.6,29.97,NW,321,0.0,1.2,96,0.01,,,0.01,WeatherDisplay:10.37,2013-08-28 10:24:00,
2013-08-28 06:29:00,75.6,74.1,29.97,NW,321,0.0,0.0,95,0.01,CLR,,0.01,WeatherDisplay:10.37,2013-08-28 10:29:00,
2013-08-28 06:34:00,75.4,73.9,29.97,NW,321,0.0,0.0,95,0.01,CLR,,0.01,WeatherDisplay:10.37,2013-08-28 10:34:00,
2013-08-28 06:39:00,75.3,73.8,29.97,NW,321,0.0,0.0,95,0.01,CLR,,0.01,WeatherDisplay:10.37,2013-08-28 10:39:00,
2013-08-28 06:44:00,75.1,73.6,29.97,NW,321,0.0,0.0,95,0.01,CLR,,0.01,WeatherDisplay:10.37,2013-08-28 10:44:00,
2013-08-28 06:49:00,75.1,73.6,29.97,NW,321,0.0,0.0,95,0.01,CLR,,0.01,WeatherDisplay:10.37,2013-08-28 10:49:00,
2013-08-28 06:54:00,75.2,73.7,29.97,NW,321,0.0,0.0,95,0.01,CLR,,0.01,WeatherDisplay:10.37,2013-08-28 10:54:00,
2013-08-28 06:59:00,75.2,73.7,29.97,NW,321,0.0,0.0,95,0.01,CLR,,0.01,WeatherDisplay:10.37,2013-08-28 10:59:00,
2013-08-28 07:04:00,75.1,73.6,29.97,NW,321,0.0,0.0,95,0.01,CLR,,0.01,WeatherDisplay:10.37,2013-08-28 11:04:00,
2013-08-28 07:09:00,75.1,73.6,29.97,NW,321,0.0,0.0,95,0.01,CLR,,0.01,WeatherDisplay:10.37,2013-08-28 11:09:00,
2013-08-28 07:14:00,75.1,73.6,29.97,NW,321,0.0,0.0,95,0.00,CLR,,0.01,WeatherDisplay:10.37,2013-08-28 11:14:00,
2013-08-28 07:19:00,75.0,73.5,29.97,NW,321,0.0,0.0,95,0.00,CLR,,0.01,WeatherDisplay:10.37,2013-08-28 11:19:00,
2013-08-28 07:24:00,75.2,73.7,29.98,NW,321,0.0,0.0,95,0.00,CLR,,0.01,WeatherDisplay:10.37,2013-08-28 11:24:00,
2013-08-28 07:29:00,75.4,73.9,29.98,NW,321,0.0,0.0,95,0.00,CLR,,0.01,WeatherDisplay:10.37,2013-08-28 11:29:00,
2013-08-28 07:34:00,75.6,74.1,29.99,NW,321,0.1,1.2,95,0.00,CLR,,0.01,WeatherDisplay:10.37,2013-08-28 11:34:00,
2013-08-28 07:39:00,75.4,73.6,30.00,SW,214,5.5,6.9,94,0.00,CLR,,0.01,WeatherDisplay:10.37,2013-08-28 11:39:00,
2013-08-28 07:44:00,75.0,72.5,30.00,SSW,213,5.1,6.9,92,0.00,CLR,,0.01,WeatherDisplay:10.37,2013-08-28 11:44:00,
2013-08-28 07:49:00,74.7,71.9,30.00,SW,215,4.1,9.2,91,0.00,CLR,,0.01,WeatherDisplay:10.37,2013-08-28 11:49:00,
2013-08-28 07:54:00,74.3,71.2,30.00,SW,221,5.2,5.8,90,0.00,CLR,,0.01,WeatherDisplay:10.37,2013-08-28 11:54:00,
2013-08-28 07:59:00,74.1,71.0,30.00,WSW,242,0.9,3.5,90,0.00,CLR,,0.01,WeatherDisplay:10.37,2013-08-28 11:59:00,
2013-08-28 08:04:00,73.9,70.8,30.00,WSW,240,0.0,0.0,90,0.00,CLR,,0.01,WeatherDisplay:10.37,2013-08-28 12:04:00,
2013-08-28 08:09:00,73.7,70.9,30.00,SSW,202,0.0,0.0,91,0.02,RA,,0.03,WeatherDisplay:10.37,2013-08-28 12:09:00,
2013-08-28 08:14:00,73.5,71.0,30.01,SSW,202,0.1,1.2,92,0.02,RA,,0.03,WeatherDisplay:10.37,2013-08-28 12:14:00,
2013-08-28 08:19:00,73.4,71.3,30.00,West,266,0.9,2.3,93,0.02,,,0.03,WeatherDisplay:10.37,2013-08-28 12:19:00,
2013-08-28 08:24:00,73.3,71.2,30.01,WSW,239,0.4,1.2,93,0.02,CLR,,0.03,WeatherDisplay:10.37,2013-08-28 12:24:00,
2013-08-28 08:29:00,73.2,71.1,30.01,SSW,201,0.0,0.0,93,0.02,CLR,,0.03,WeatherDisplay:10.37,2013-08-28 12:29:00,
2013-08-28 08:34:00,73.0,70.9,30.01,SSW,192,0.8,3.5,93,0.03,RA,,0.04,WeatherDisplay:10.37,2013-08-28 12:34:00,
2013-08-28 08:39:00,72.9,71.1,30.01,SE,138,2.0,4.6,94,0.06,RA,,0.07,WeatherDisplay:10.37,2013-08-28 12:39:00,
2013-08-28 08:44:00,72.5,69.7,30.01,NE,46,1.0,2.3,91,0.10,RA,,0.11,WeatherDisplay:10.37,2013-08-28 12:44:00,
2013-08-28 08:49:00,72.4,69.9,30.00,NNE,13,0.1,1.2,92,0.10,RA,,0.11,WeatherDisplay:10.37,2013-08-28 12:49:00,
2013-08-28 08:54:00,72.6,70.5,30.00,WSW,252,0.6,2.3,93,0.10,,,0.11,WeatherDisplay:10.37,2013-08-28 12:54:00,
2013-08-28 08:59:00,72.8,71.0,30.00,WSW,252,0.0,0.0,94,0.10,CLR,,0.11,WeatherDisplay:10.37,2013-08-28 12:59:00,
2013-08-28 09:04:00,72.9,71.1,30.00,WSW,252,0.0,0.0,94,0.10,CLR,,0.11,WeatherDisplay:10.37,2013-08-28 13:04:00,
2013-08-28 09:09:00,73.3,71.5,30.00,WSW,251,0.0,0.0,94,0.08,CLR,,0.11,WeatherDisplay:10.37,2013-08-28 13:09:00,
2013-08-28 09:14:00,73.6,71.8,30.01,WSW,251,0.0,0.0,94,0.08,CLR,,0.11,WeatherDisplay:10.37,2013-08-28 13:14:00,
2013-08-28 09:19:00,74.1,72.6,30.02,South,175,0.7,3.5,95,0.08,CLR,,0.11,WeatherDisplay:10.37,2013-08-28 13:19:00,
2013-08-28 09:24:00,74.3,72.5,30.02,South,176,0.2,1.2,94,0.08,CLR,,0.11,WeatherDisplay:10.37,2013-08-28 13:24:00,
2013-08-28 09:29:00,74.5,72.7,30.02,South,176,0.0,0.0,94,0.08,CLR,,0.11,WeatherDisplay:10.37,2013-08-28 13:29:00,
2013-08-28 09:34:00,74.9,73.1,30.02,South,175,1.2,2.3,94,0.07,CLR,,0.11,WeatherDisplay:10.37,2013-08-28 13:34:00,
2013-08-28 09:39:00,75.1,72.9,30.02,ENE,59,0.1,1.2,93,0.04,CLR,,0.11,WeatherDisplay:10.37,2013-08-28 13:39:00,
2013-08-28 09:44:00,75.3,73.1,30.03,ENE,63,0.0,1.2,93,0.00,CLR,,0.11,WeatherDisplay:10.37,2013-08-28 13:44:00,
2013-08-28 09:49:00,75.3,73.1,30.03,East,84,0.6,1.2,93,0.00,CLR,,0.11,WeatherDisplay:10.37,2013-08-28 13:49:00,
2013-08-28 09:54:00,75.6,73.4,30.03,SW,218,0.4,1.2,93,0.00,CLR,,0.11,WeatherDisplay:10.37,2013-08-28 13:54:00,
2013-08-28 09:59:00,75.7,73.5,30.03,WNW,299,0.3,1.2,93,0.00,CLR,,0.11,WeatherDisplay:10.37,2013-08-28 13:59:00,
2013-08-28 10:04:00,75.6,73.1,30.03,NNW,327,0.6,3.5,92,0.00,CLR,,0.11,WeatherDisplay:10.37,2013-08-28 14:04:00,
2013-08-28 10:09:00,76.0,74.1,30.03,NNW,327,0.8,1.2,94,0.00,CLR,,0.11,WeatherDisplay:10.37,2013-08-28 14:09:00,
2013-08-28 10:14:00,76.4,74.5,30.03,NNW,327,0.7,1.2,94,0.00,CLR,,0.11,WeatherDisplay:10.37,2013-08-28 14:14:00,
2013-08-28 10:19:00,76.7,74.8,30.03,WSW,249,0.8,2.0,94,0.00,CLR,,0.11,WeatherDisplay:10.37,2013-08-28 14:19:00,
2013-08-28 10:24:00,76.8,74.6,30.04,WSW,242,1.2,2.3,93,0.00,CLR,,0.11,WeatherDisplay:10.37,2013-08-28 14:24:00,
2013-08-28 10:29:00,76.9,74.7,30.04,SW,230,1.5,3.5,93,0.00,CLR,,0.11,WeatherDisplay:10.37,2013-08-28 14:29:00,
2013-08-28 10:34:00,77.1,74.9,30.04,WSW,247,3.5,5.8,93,0.00,CLR,,0.11,WeatherDisplay:10.37,2013-08-28 14:34:00,
2013-08-28 10:40:00,77.1,74.6,30.04,WNW,284,3.3,4.6,92,0.00,CLR,,0.11,WeatherDisplay:10.37,2013-08-28 14:40:00,
2013-08-28 10:45:00,77.0,74.5,30.04,West,273,1.7,3.5,92,0.00,CLR,,0.11,WeatherDisplay:10.37,2013-08-28 14:45:00,
2013-08-28 10:50:00,76.9,74.4,30.03,West,259,0.7,3.5,92,0.00,CLR,,0.11,WeatherDisplay:10.37,2013-08-28 14:50:00,
2013-08-28 10:55:00,76.8,74.3,30.03,West,271,2.0,3.5,92,0.00,CLR,,0.11,WeatherDisplay:10.37,2013-08-28 14:55:00,
2013-08-28 11:00:00,76.7,74.2,30.03,WNW,283,0.0,1.2,92,0.00,CLR,,0.11,WeatherDisplay:10.37,2013-08-28 15:00:00,
2013-08-28 11:05:00,76.7,74.2,30.03,WSW,246,2.4,3.5,92,0.00,CLR,,0.11,WeatherDisplay:10.37,2013-08-28 15:05:00,
2013-08-28 11:10:00,76.9,74.7,30.03,West,259,1.4,3.5,93,0.00,CLR,,0.11,WeatherDisplay:10.37,2013-08-28 15:10:00,
2013-08-28 11:15:00,76.8,74.3,30.03,West,259,0.5,1.2,92,0.00,CLR,,0.11,WeatherDisplay:10.37,2013-08-28 15:15:00,
2013-08-28 11:20:00,76.7,74.2,30.03,West,263,0.0,2.3,92,0.00,CLR,,0.11,WeatherDisplay:10.37,2013-08-28 15:20:00,
2013-08-28 11:25:00,76.8,74.3,30.02,West,263,0.5,2.3,92,0.00,CLR,,0.11,WeatherDisplay:10.37,2013-08-28 15:25:00,
2013-08-28 11:30:00,76.7,73.9,30.02,West,263,0.0,0.0,91,0.00,CLR,,0.11,WeatherDisplay:10.37,2013-08-28 15:30:00,
2013-08-28 11:35:00,77.0,74.5,30.03,West,264,0.2,1.2,92,0.00,CLR,,0.11,WeatherDisplay:10.37,2013-08-28 15:35:00,
2013-08-28 11:40:00,77.1,74.3,30.03,West,264,0.2,1.2,91,0.01,RA,,0.12,WeatherDisplay:10.37,2013-08-28 15:40:00,
2013-08-28 11:45:00,77.6,75.1,30.03,NW,324,1.9,3.5,92,0.01,RA,,0.12,WeatherDisplay:10.37,2013-08-28 15:45:00,
2013-08-28 11:50:00,78.0,75.5,30.03,NNE,30,2.0,3.5,92,0.01,CLR,,0.12,WeatherDisplay:10.37,2013-08-28 15:50:00,
2013-08-28 11:55:00,78.4,74.5,30.03,NNE,23,2.1,4.6,88,0.01,CLR,,0.12,WeatherDisplay:10.37,2013-08-28 15:55:00,
2013-08-28 12:00:00,78.6,75.1,30.03,NNW,333,1.7,3.5,89,0.01,CLR,,0.12,WeatherDisplay:10.37,2013-08-28 16:00:00,
2013-08-28 12:05:00,78.9,74.7,30.02,NE,45,1.9,5.8,87,0.01,CLR,,0.12,WeatherDisplay:10.37,2013-08-28 16:05:00,
2013-08-28 12:10:00,79.1,75.2,30.02,North,360,1.5,4.6,88,0.01,CLR,,0.12,WeatherDisplay:10.37,2013-08-28 16:10:00,
2013-08-28 12:15:00,79.4,75.5,30.02,North,351,0.5,2.3,88,0.01,CLR,,0.12,WeatherDisplay:10.37,2013-08-28 16:15:00,
2013-08-28 12:20:00,79.5,75.3,30.02,NNE,28,0.9,3.5,87,0.01,CLR,,0.12,WeatherDisplay:10.37,2013-08-28 16:20:00,
2013-08-28 12:25:00,79.7,75.5,30.02,NNE,28,0.4,1.2,87,0.01,CLR,,0.12,WeatherDisplay:10.37,2013-08-28 16:25:00,
2013-08-28 12:30:00,80.4,75.8,30.03,ENE,62,2.8,5.8,86,0.01,CLR,,0.12,WeatherDisplay:10.37,2013-08-28 16:30:00,
2013-08-28 12:35:00,80.7,75.8,30.02,NE,53,0.0,2.3,85,0.01,CLR,,0.12,WeatherDisplay:10.37,2013-08-28 16:35:00,
2013-08-28 12:40:00,80.8,75.2,30.02,NNW,346,0.6,2.3,83,0.00,CLR,,0.12,WeatherDisplay:10.37,2013-08-28 16:40:00,
2013-08-28 12:45:00,81.3,75.3,30.02,NW,310,2.1,3.5,82,0.00,CLR,,0.12,WeatherDisplay:10.37,2013-08-28 16:45:00,
2013-08-28 12:50:00,81.4,75.4,30.02,NNE,26,2.2,4.6,82,0.00,CLR,,0.12,WeatherDisplay:10.37,2013-08-28 16:50:00,
2013-08-28 12:55:00,81.2,74.8,30.02,NE,40,1.7,1.7,81,0.00,CLR,,0.12,WeatherDisplay:10.37,2013-08-28 16:55:00,
2013-08-28 13:00:00,81.4,75.4,30.02,NNE,30,2.9,4.6,82,0.00,CLR,,0.12,WeatherDisplay:10.37,2013-08-28 17:00:00,
2013-08-28 13:05:00,81.5,75.1,30.02,NNE,30,0.0,0.0,81,0.00,CLR,,0.12,WeatherDisplay:10.37,2013-08-28 17:05:00,
2013-08-28 13:10:00,81.8,75.8,30.02,NNE,30,0.8,2.3,82,0.00,CLR,,0.12,WeatherDisplay:10.37,2013-08-28 17:10:00,
2013-08-28 13:15:00,82.2,76.2,30.02,ESE,115,3.1,3.5,82,0.00,CLR,,0.12,WeatherDisplay:10.37,2013-08-28 17:15:00,
2013-08-28 13:20:00,82.4,75.2,30.02,SE,141,1.2,2.3,79,0.00,CLR,,0.12,WeatherDisplay:10.37,2013-08-28 17:20:00,
2013-08-28 13:25:00,82.5,75.7,30.01,NE,36,2.1,3.5,80,0.00,CLR,,0.12,WeatherDisplay:10.37,2013-08-28 17:25:00,
2013-08-28 13:30:00,82.8,76.0,30.01,NE,35,1.9,4.6,80,0.00,CLR,,0.12,WeatherDisplay:10.37,2013-08-28 17:30:00,
2013-08-28 13:35:00,83.2,75.2,30.01,ESE,109,5.1,6.9,77,0.00,CLR,,0.12,WeatherDisplay:10.37,2013-08-28 17:35:00,
2013-08-28 13:40:00,83.4,75.4,30.01,East,101,1.1,2.3,77,0.00,CLR,,0.12,WeatherDisplay:10.37,2013-08-28 17:40:00,
2013-08-28 13:45:00,83.7,75.3,30.01,South,172,1.9,3.5,76,0.00,CLR,,0.12,WeatherDisplay:10.37,2013-08-28 17:45:00,
2013-08-28 13:50:00,84.1,74.9,30.01,ESE,103,0.8,2.3,74,0.00,CLR,,0.12,WeatherDisplay:10.37,2013-08-28 17:50:00,
2013-08-28 13:55:00,84.1,74.5,30.01,ESE,112,2.8,4.6,73,0.00,CLR,,0.12,WeatherDisplay:10.37,2013-08-28 17:55:00,
2013-08-28 14:00:00,84.0,74.8,30.01,SE,142,2.8,4.6,74,0.00,CLR,,0.12,WeatherDisplay:10.37,2013-08-28 18:00:00,
2013-08-28 14:05:00,83.9,74.3,30.01,ESE,103,7.3,10.4,73,0.00,CLR,,0.12,WeatherDisplay:10.37,2013-08-28 18:05:00,
2013-08-28 14:10:00,83.9,73.9,30.01,East,101,7.2,10.4,72,0.00,CLR,,0.12,WeatherDisplay:10.37,2013-08-28 18:10:00,
2013-08-28 14:15:00,84.0,74.4,30.00,ESE,102,4.3,6.9,73,0.00,CLR,,0.12,WeatherDisplay:10.37,2013-08-28 18:15:00,
2013-08-28 14:20:00,84.1,74.5,30.00,ENE,60,4.7,8.1,73,0.00,CLR,,0.12,WeatherDisplay:10.37,2013-08-28 18:20:00,
2013-08-28 14:25:00,84.2,74.2,30.00,SSE,154,3.7,4.6,72,0.00,CLR,,0.12,WeatherDisplay:10.37,2013-08-28 18:25:00,
2013-08-28 14:30:00,84.1,73.7,29.99,SE,125,4.1,8.1,71,0.00,CLR,,0.12,WeatherDisplay:10.37,2013-08-28 18:30:00,
2013-08-28 14:35:00,84.0,73.2,29.99,SE,130,7.0,9.2,70,0.00,CLR,,0.12,WeatherDisplay:10.37,2013-08-28 18:35:00,
2013-08-28 14:40:00,84.4,74.0,29.99,SE,137,6.0,8.1,71,0.00,CLR,,0.12,WeatherDisplay:10.37,2013-08-28 18:40:00,
2013-08-28 14:45:00,84.7,73.8,29.98,ESE,102,5.0,9.2,70,0.00,CLR,,0.12,WeatherDisplay:10.37,2013-08-28 18:45:00,
2013-08-28 14:50:00,84.6,74.2,29.98,East,96,4.5,8.1,71,0.00,CLR,,0.12,WeatherDisplay:10.37,2013-08-28 18:50:00,
2013-08-28 14:55:00,84.6,75.0,29.98,SSE,160,4.4,5.8,73,0.00,CLR,,0.12,WeatherDisplay:10.37,2013-08-28 18:55:00,
2013-08-28 15:00:00,85.2,75.1,29.98,NE,46,5.4,5.4,72,0.00,CLR,,0.12,WeatherDisplay:10.37,2013-08-28 19:00:00,
2013-08-28 15:05:00,85.2,75.1,29.97,SSE,153,4.7,6.9,72,0.00,CLR,,0.12,WeatherDisplay:10.37,2013-08-28 19:05:00,
2013-08-28 15:10:00,85.2,75.1,29.97,ESE,115,3.2,6.9,72,0.00,CLR,,0.12,WeatherDisplay:10.37,2013-08-28 19:10:00,
2013-08-28 15:16:00,84.9,74.9,29.97,ESE,119,4.7,7.0,72,0.00,CLR,,0.12,WeatherDisplay:10.37,2013-08-28 19:16:00,
2013-08-28 15:21:00,84.7,74.7,29.97,SE,128,6.6,9.2,72,0.00,CLR,,0.12,WeatherDisplay:10.37,2013-08-28 19:21:00,
2013-08-28 15:26:00,85.0,75.4,29.97,South,179,5.2,8.1,73,0.00,CLR,,0.12,WeatherDisplay:10.37,2013-08-28 19:26:00,
2013-08-28 15:31:00,85.0,75.4,29.97,ENE,76,8.4,11.5,73,0.00,CLR,,0.12,WeatherDisplay:10.37,2013-08-28 19:31:00,
2013-08-28 15:36:00,84.6,74.6,29.97,SSE,150,5.4,13.8,72,0.00,CLR,,0.12,WeatherDisplay:10.37,2013-08-28 19:36:00,
2013-08-28 15:41:00,84.4,74.8,29.97,ESE,119,5.3,10.4,73,0.00,CLR,,0.12,WeatherDisplay:10.37,2013-08-28 19:41:00,
2013-08-28 15:46:00,84.4,75.2,29.97,East,94,5.3,10.4,74,0.00,CLR,,0.12,WeatherDisplay:10.37,2013-08-28 19:46:00,
2013-08-28 15:51:00,84.8,75.6,29.97,SE,137,6.3,10.4,74,0.00,CLR,,0.12,WeatherDisplay:10.37,2013-08-28 19:51:00,
2013-08-28 15:56:00,85.1,75.5,29.96,SE,146,4.5,4.5,73,0.00,CLR,,0.12,WeatherDisplay:10.37,2013-08-28 19:56:00,
2013-08-28 16:01:00,85.1,75.5,29.96,SE,126,8.5,9.0,73,0.00,CLR,,0.12,WeatherDisplay:10.37,2013-08-28 20:01:00,
2013-08-28 16:06:00,85.1,74.6,29.96,SE,146,5.5,12.7,71,0.00,CLR,,0.12,WeatherDisplay:10.37,2013-08-28 20:06:00,
2013-08-28 16:11:00,85.2,74.7,29.95,ESE,115,6.9,9.2,71,0.00,CLR,,0.12,WeatherDisplay:10.37,2013-08-28 20:11:00,
2013-08-28 16:16:00,85.3,75.2,29.95,East,88,8.7,11.5,72,0.00,CLR,,0.12,WeatherDisplay:10.37,2013-08-28 20:16:00,
2013-08-28 16:21:00,85.4,74.9,29.95,East,82,10.2,12.7,71,0.00,CLR,,0.12,WeatherDisplay:10.37,2013-08-28 20:21:00,
2013-08-28 16:26:00,85.5,74.6,29.95,ESE,123,10.9,15.0,70,0.00,CLR,,0.12,WeatherDisplay:10.37,2013-08-28 20:26:00,
2013-08-28 16:31:00,85.2,74.7,29.95,SE,130,6.4,8.1,71,0.00,CLR,,0.12,WeatherDisplay:10.37,2013-08-28 20:31:00,
2013-08-28 16:36:00,85.0,75.0,29.95,SE,137,8.3,17.3,72,0.00,CLR,,0.12,WeatherDisplay:10.37,2013-08-28 20:36:00,
2013-08-28 16:41:00,84.8,75.2,29.95,SE,128,6.8,8.1,73,0.00,CLR,,0.12,WeatherDisplay:10.37,2013-08-28 20:41:00,
2013-08-28 16:46:00,84.9,75.3,29.95,ENE,70,4.7,13.8,73,0.00,CLR,,0.12,WeatherDisplay:10.37,2013-08-28 20:46:00,
2013-08-28 16:51:00,84.7,74.7,29.95,ESE,123,8.5,13.8,72,0.00,CLR,,0.12,WeatherDisplay:10.37,2013-08-28 20:51:00,
2013-08-28 16:56:00,84.3,75.1,29.95,SE,128,5.5,6.9,74,0.00,CLR,,0.12,WeatherDisplay:10.37,2013-08-28 20:56:00,
2013-08-28 17:01:00,84.2,74.6,29.94,ESE,116,8.1,12.7,73,0.00,CLR,,0.12,WeatherDisplay:10.37,2013-08-28 21:01:00,
2013-08-28 17:06:00,84.5,74.9,29.94,ESE,117,7.8,10.4,73,0.00,CLR,,0.12,WeatherDisplay:10.37,2013-08-28 21:06:00,
2013-08-28 17:11:00,84.7,75.5,29.94,East,81,9.1,10.4,74,0.00,CLR,,0.12,WeatherDisplay:10.37,2013-08-28 21:11:00,
2013-08-28 17:16:00,84.6,75.8,29.94,ESE,103,5.9,8.1,75,0.00,CLR,,0.12,WeatherDisplay:10.37,2013-08-28 21:16:00,
2013-08-28 17:21:00,84.4,75.6,29.94,SSE,157,4.0,4.6,75,0.00,CLR,,0.12,WeatherDisplay:10.37,2013-08-28 21:21:00,
2013-08-28 17:26:00,83.9,75.9,29.94,ENE,75,3.4,9.2,77,0.00,CLR,,0.12,WeatherDisplay:10.37,2013-08-28 21:26:00,
2013-08-28 17:31:00,83.6,75.6,29.94,SE,126,10.4,13.8,77,0.00,CLR,,0.12,WeatherDisplay:10.37,2013-08-28 21:31:00,
2013-08-28 17:36:00,83.4,75.4,29.95,ESE,119,2.5,4.6,77,0.00,CLR,,0.12,WeatherDisplay:10.37,2013-08-28 21:36:00,
2013-08-28 17:41:00,83.3,76.1,29.95,ESE,110,3.5,6.9,79,0.00,CLR,,0.12,WeatherDisplay:10.37,2013-08-28 21:41:00,
2013-08-28 17:46:00,83.1,75.9,29.95,East,101,5.6,10.4,79,0.00,CLR,,0.12,WeatherDisplay:10.37,2013-08-28 21:46:00,
2013-08-28 17:51:00,83.0,76.2,29.95,ESE,117,6.0,6.0,80,0.00,CLR,,0.12,WeatherDisplay:10.37,2013-08-28 21:51:00,
2013-08-28 17:56:00,83.0,75.8,29.95,ESE,117,3.3,5.8,79,0.00,CLR,,0.12,WeatherDisplay:10.37,2013-08-28 21:56:00,
2013-08-28 18:01:00,83.1,75.9,29.95,ESE,121,4.5,12.7,79,0.00,CLR,,0.12,WeatherDisplay:10.37,2013-08-28 22:01:00,
2013-08-28 18:06:00,83.0,75.8,29.95,ENE,73,6.0,10.4,79,0.00,CLR,,0.12,WeatherDisplay:10.37,2013-08-28 22:06:00,
2013-08-28 18:11:00,83.0,76.2,29.95,SE,131,4.6,8.1,80,0.00,CLR,,0.12,WeatherDisplay:10.37,2013-08-28 22:11:00,
2013-08-28 18:16:00,82.8,76.0,29.95,ESE,105,6.1,10.4,80,0.00,CLR,,0.12,WeatherDisplay:10.37,2013-08-28 22:16:00,
2013-08-28 18:21:00,82.7,75.9,29.95,East,100,3.8,6.0,80,0.00,CLR,,0.12,WeatherDisplay:10.37,2013-08-28 22:21:00,
2013-08-28 18:26:00,82.7,75.9,29.95,ESE,111,5.8,5.8,80,0.00,CLR,,0.12,WeatherDisplay:10.37,2013-08-28 22:26:00,
2013-08-28 18:31:00,82.6,76.2,29.95,East,89,4.7,8.1,81,0.00,CLR,,0.12,WeatherDisplay:10.37,2013-08-28 22:31:00,
2013-08-28 18:36:00,82.7,76.3,29.95,ESE,111,5.7,8.1,81,0.00,CLR,,0.12,WeatherDisplay:10.37,2013-08-28 22:36:00,
2013-08-28 18:41:00,82.7,75.9,29.95,ESE,112,5.3,9.2,80,0.00,CLR,,0.12,WeatherDisplay:10.37,2013-08-28 22:41:00,
2013-08-28 18:46:00,82.6,75.4,29.96,SSE,147,4.3,5.8,79,0.00,CLR,,0.12,WeatherDisplay:10.37,2013-08-28 22:46:00,
2013-08-28 18:51:00,82.4,75.6,29.96,ESE,115,6.5,8.1,80,0.00,CLR,,0.12,WeatherDisplay:10.37,2013-08-28 22:51:00,
2013-08-28 18:56:00,82.3,75.5,29.96,SE,146,3.7,4.6,80,0.00,CLR,,0.12,WeatherDisplay:10.37,2013-08-28 22:56:00,
2013-08-28 19:01:00,82.1,75.7,29.96,SE,138,1.2,2.3,81,0.00,CLR,,0.12,WeatherDisplay:10.37,2013-08-28 23:01:00,
2013-08-28 19:06:00,82.1,75.7,29.96,SSE,163,4.1,8.1,81,0.00,CLR,,0.12,WeatherDisplay:10.37,2013-08-28 23:06:00,
2013-08-28 19:11:00,81.9,75.5,29.96,SE,129,4.3,5.8,81,0.00,CLR,,0.12,WeatherDisplay:10.37,2013-08-28 23:11:00,
2013-08-28 19:16:00,81.8,75.4,29.96,SE,138,2.7,4.6,81,0.00,CLR,,0.12,WeatherDisplay:10.37,2013-08-28 23:16:00,
2013-08-28 19:21:00,81.7,75.7,29.97,SSE,152,2.7,4.6,82,0.00,CLR,,0.12,WeatherDisplay:10.37,2013-08-28 23:21:00,
2013-08-28 19:26:00,81.6,75.6,29.97,South,177,4.3,4.6,82,0.00,CLR,,0.12,WeatherDisplay:10.37,2013-08-28 23:26:00,
2013-08-28 19:31:00,81.5,75.1,29.97,SE,138,2.9,5.8,81,0.00,CLR,,0.12,WeatherDisplay:10.37,2013-08-28 23:31:00,
2013-08-28 19:36:00,81.5,75.5,29.97,SE,126,3.3,3.5,82,0.00,CLR,,0.12,WeatherDisplay:10.37,2013-08-28 23:36:00,
2013-08-28 19:41:00,81.5,75.5,29.97,South,178,2.4,3.5,82,0.00,CLR,,0.12,WeatherDisplay:10.37,2013-08-28 23:41:00,
2013-08-28 19:46:00,81.4,75.4,29.97,SE,140,0.8,2.3,82,0.00,CLR,,0.12,WeatherDisplay:10.37,2013-08-28 23:46:00,
2013-08-28 19:51:00,81.2,75.2,29.97,SE,141,0.5,1.2,82,0.00,CLR,,0.12,WeatherDisplay:10.37,2013-08-28 23:51:00,
2013-08-28 19:56:00,81.1,75.1,29.97,South,175,0.6,2.3,82,0.00,CLR,,0.12,WeatherDisplay:10.37,2013-08-28 23:56:00,
2013-08-28 20:01:00,80.9,74.9,29.97,South,175,0.1,1.0,82,0.00,CLR,,0.12,WeatherDisplay:10.37,2013-08-29 00:01:00,
2013-08-28 20:06:00,80.8,74.8,29.98,South,175,0.8,3.5,82,0.00,CLR,,0.12,WeatherDisplay:10.37,2013-08-29 00:06:00,
2013-08-28 20:11:00,80.7,74.7,29.98,SE,143,0.0,0.0,82,0.00,CLR,,0.12,WeatherDisplay:10.37,2013-08-29 00:11:00,
2013-08-28 20:16:00,80.7,75.1,29.98,SE,143,0.0,0.0,83,0.00,CLR,,0.12,WeatherDisplay:10.37,2013-08-29 00:16:00,
2013-08-28 20:21:00,80.5,75.2,29.98,SE,143,0.0,0.0,84,0.00,CLR,,0.12,WeatherDisplay:10.37,2013-08-29 00:21:00,
2013-08-28 20:26:00,80.3,75.0,29.98,SE,143,0.0,0.0,84,0.00,CLR,,0.12,WeatherDisplay:10.37,2013-08-29 00:26:00,
2013-08-28 20:31:00,80.2,75.3,29.98,SE,143,0.0,0.0,85,0.00,CLR,,0.12,WeatherDisplay:10.37,2013-08-29 00:31:00,
2013-08-28 20:36:00,80.0,75.4,29.98,SE,143,0.0,0.0,86,0.00,CLR,,0.12,WeatherDisplay:10.37,2013-08-29 00:36:00,
2013-08-28 20:41:00,79.8,75.2,29.98,SE,143,0.0,0.0,86,0.00,CLR,,0.12,WeatherDisplay:10.37,2013-08-29 00:41:00,
2013-08-28 20:47:00,79.3,74.7,29.98,SE,143,0.0,0.0,86,0.00,CLR,,0.12,WeatherDisplay:10.37,2013-08-29 00:47:00,
2013-08-28 20:52:00,78.8,74.6,29.99,SE,143,0.0,0.0,87,0.00,CLR,,0.12,WeatherDisplay:10.37,2013-08-29 00:52:00,
2013-08-28 20:57:00,78.6,74.4,29.99,SE,143,0.0,0.0,87,0.00,CLR,,0.12,WeatherDisplay:10.37,2013-08-29 00:57:00,
2013-08-28 21:02:00,78.5,75.0,29.99,SE,143,0.0,0.0,89,0.00,CLR,,0.12,WeatherDisplay:10.37,2013-08-29 01:02:00,
2013-08-28 21:07:00,78.4,74.9,29.99,SE,143,0.0,0.0,89,0.00,CLR,,0.12,WeatherDisplay:10.37,2013-08-29 01:07:00,
2013-08-28 21:12:00,78.3,74.8,29.99,SE,143,0.0,0.0,89,0.00,CLR,,0.12,WeatherDisplay:10.37,2013-08-29 01:12:00,
2013-08-28 21:17:00,78.1,74.6,29.99,SE,143,0.0,0.0,89,0.00,CLR,,0.12,WeatherDisplay:10.37,2013-08-29 01:17:00,
2013-08-28 21:22:00,78.0,74.5,30.00,SE,143,0.0,0.0,89,0.00,CLR,,0.12,WeatherDisplay:10.37,2013-08-29 01:22:00,
2013-08-28 21:27:00,78.0,74.8,30.00,SE,143,0.0,0.0,90,0.00,CLR,,0.12,WeatherDisplay:10.37,2013-08-29 01:27:00,
2013-08-28 21:32:00,77.9,74.7,30.00,SE,143,0.0,0.0,90,0.00,CLR,,0.12,WeatherDisplay:10.37,2013-08-29 01:32:00,
2013-08-28 21:37:00,77.8,75.0,30.00,SE,143,0.0,0.0,91,0.00,CLR,,0.12,WeatherDisplay:10.37,2013-08-29 01:37:00,
2013-08-28 21:42:00,77.7,74.9,30.00,SE,143,0.0,0.0,91,0.00,CLR,,0.12,WeatherDisplay:10.37,2013-08-29 01:42:00,
2013-08-28 21:47:00,77.6,74.8,30.00,SE,143,0.0,0.0,91,0.00,CLR,,0.12,WeatherDisplay:10.37,2013-08-29 01:47:00,
2013-08-28 21:52:00,77.5,74.7,30.01,SE,143,0.0,0.0,91,0.00,CLR,,0.12,WeatherDisplay:10.37,2013-08-29 01:52:00,
2013-08-28 21:57:00,77.3,74.5,30.00,SE,143,0.0,0.0,91,0.00,CLR,,0.12,WeatherDisplay:10.37,2013-08-29 01:57:00,
2013-08-28 22:02:00,77.2,74.4,30.01,SE,143,0.0,0.0,91,0.00,CLR,,0.12,WeatherDisplay:10.37,2013-08-29 02:02:00,
2013-08-28 22:07:00,77.3,74.8,30.01,SE,143,0.0,0.0,92,0.00,CLR,,0.12,WeatherDisplay:10.37,2013-08-29 02:07:00,
2013-08-28 22:12:00,77.3,74.8,30.01,SE,143,0.0,0.0,92,0.00,CLR,,0.12,WeatherDisplay:10.37,2013-08-29 02:12:00,
2013-08-28 22:17:00,77.3,74.8,30.01,SE,143,0.0,0.0,92,0.00,CLR,,0.12,WeatherDisplay:10.37,2013-08-29 02:17:00,
2013-08-28 22:22:00,77.3,74.8,30.01,SE,143,0.0,0.0,92,0.00,CLR,,0.12,WeatherDisplay:10.37,2013-08-29 02:22:00,
2013-08-28 22:27:00,77.2,74.7,30.01,SE,143,0.0,0.0,92,0.00,CLR,,0.12,WeatherDisplay:10.37,2013-08-29 02:27:00,
2013-08-28 22:32:00,77.2,74.7,30.01,SE,143,0.0,0.0,92,0.00,CLR,,0.12,WeatherDisplay:10.37,2013-08-29 02:32:00,
2013-08-28 22:37:00,77.1,74.9,30.01,SE,143,0.0,0.0,93,0.00,CLR,,0.12,WeatherDisplay:10.37,2013-08-29 02:37:00,
2013-08-28 22:42:00,77.0,74.8,30.01,SE,143,0.0,0.0,93,0.00,CLR,,0.12,WeatherDisplay:10.37,2013-08-29 02:42:00,
2013-08-28 22:47:00,77.0,74.8,30.02,SE,143,0.0,0.0,93,0.00,CLR,,0.12,WeatherDisplay:10.37,2013-08-29 02:47:00,
2013-08-28 22:52:00,76.9,74.7,30.02,SE,143,0.0,0.0,93,0.00,CLR,,0.12,WeatherDisplay:10.37,2013-08-29 02:52:00,
2013-08-28 22:57:00,76.8,74.6,30.02,SE,143,0.0,0.0,93,0.00,CLR,,0.12,WeatherDisplay:10.37,2013-08-29 02:57:00,
2013-08-28 23:02:00,76.7,74.5,30.02,SE,143,0.0,0.0,93,0.00,CLR,,0.12,WeatherDisplay:10.37,2013-08-29 03:02:00,
2013-08-28 23:07:00,76.7,74.8,30.02,SE,143,0.0,0.0,94,0.00,CLR,,0.12,WeatherDisplay:10.37,2013-08-29 03:07:00,
2013-08-28 23:12:00,76.9,75.0,30.02,SE,143,0.0,0.0,94,0.00,CLR,,0.12,WeatherDisplay:10.37,2013-08-29 03:12:00,
2013-08-28 23:17:00,76.8,74.9,30.02,SE,143,0.0,0.0,94,0.00,CLR,,0.12,WeatherDisplay:10.37,2013-08-29 03:17:00,
2013-08-28 23:22:00,76.6,74.4,30.02,SE,143,0.0,0.0,93,0.00,CLR,,0.12,WeatherDisplay:10.37,2013-08-29 03:22:00,
2013-08-28 23:27:00,76.7,74.8,30.02,SE,143,0.0,0.0,94,0.00,CLR,,0.12,WeatherDisplay:10.37,2013-08-29 03:27:00,
2013-08-28 23:32:00,76.6,74.7,30.02,SE,143,0.0,0.0,94,0.00,CLR,,0.12,WeatherDisplay:10.37,2013-08-29 03:32:00,
2013-08-28 23:37:00,76.6,74.7,30.02,SE,143,0.0,0.0,94,0.00,CLR,,0.12,WeatherDisplay:10.37,2013-08-29 03:37:00,
2013-08-28 23:42:00,76.6,74.7,30.02,SE,143,0.0,0.0,94,0.00,CLR,,0.12,WeatherDisplay:10.37,2013-08-29 03:42:00,
2013-08-28 23:47:00,76.4,74.5,30.02,SE,143,0.0,0.0,94,0.00,CLR,,0.12,WeatherDisplay:10.37,2013-08-29 03:47:00,
2013-08-28 23:52:00,76.4,74.5,30.02,SE,143,0.0,0.0,94,0.00,CLR,,0.12,WeatherDisplay:10.37,2013-08-29 03:52:00,
2013-08-28 23:57:00,76.4,74.9,30.02,SE,143,0.0,0.0,95,0.00,CLR,,0.12,WeatherDisplay:10.37,2013-08-29 03:57:00,